User: anonymous   Login
Location: Arena
(42.5007°N, 9.4650°E)
Time: 12:24:04
(UTC+00:00)
Language:

Cosmos 1603 - Orbit

View from above orbital plane
View from above orbital plane
View from above satellite
View from above satellite

Ground track
Ground track

The orbit data is extracted from the following two-line orbital elements,

1 15333U 84106A   20191.93676107 -.00000266  00000-0 -11462-3 0  9999
2 15333  71.0271 269.6332 0021965 300.5444  59.3510 14.14104687846411
Epoch (UTC): 09 July 2020 22:28:56
Eccentricity: 0.0021965
inclination: 71.0271°
perigee height: 829 km
apogee height: 861 km
right ascension of ascending node: 269.6332°
argument of perigee: 300.5444°
revolutions per day: 14.14104687
mean anomaly at epoch: 59.3510°
orbit number at epoch: 84641

The dashed part of the orbit path shows where the satellite is in the earth's shadow,  

DLR